When you browse on this site, cookies collect data to enhance your experience and personalize the content and advertising you see.
Visit our Privacy Policy to learn more. By continuing to use the site, you agree to this use of cookies and data.
  • In Deutschland
  • Länderverzeichnis
  • Für 7 Tage
  • Wassertemperatur
  • Wetterkarte
  • Widgets
  • user-avatar
    Anmelden

    Stündliche Wetter Perth

    Heute, 20 August, Dienstag

    Zeit Temperatur Niederschläge Wind Luftdruck Luftfeuchtigkeit
    00:00 +12°C° 0 mm 2 m/S 774 mmHg 72%
    01:00 +12°C° 0 mm 2 m/S 774 mmHg 72%
    02:00 +12°C° 0 mm 2 m/S 774 mmHg 69%
    03:00 +10°C° 0 mm 2 m/S 774 mmHg 68%
    04:00 +10°C° 0 mm 3 m/S 774 mmHg 67%
    05:00 +10°C° 0 mm 3 m/S 774 mmHg 66%
    06:00 +10°C° 0 mm 3 m/S 774 mmHg 64%
    07:00 +10°C° 0 mm 3 m/S 774 mmHg 63%
    08:00 +11°C° 0 mm 3 m/S 774 mmHg 61%
    09:00 +13°C° 0 mm 3 m/S 774 mmHg 56%
    10:00 +16°C° 0 mm 3 m/S 774 mmHg 51%
    11:00 +18°C° 0 mm 3 m/S 774 mmHg 45%
    12:00 +19°C° 0 mm 3 m/S 773 mmHg 45%
    13:00 +20°C° 0 mm 2 m/S 772 mmHg 44%
    14:00 +21°C° 0 mm 2 m/S 772 mmHg 43%
    15:00 +20°C° 0 mm 2 m/S 771 mmHg 48%
    16:00 +20°C° 0 mm 2 m/S 771 mmHg 53%
    17:00 +19°C° 0 mm 2 m/S 771 mmHg 58%
    18:00 +18°C° 0 mm 2 m/S 771 mmHg 61%
    19:00 +16°C° 0 mm 2 m/S 771 mmHg 64%
    20:00 +15°C° 0 mm 2 m/S 772 mmHg 66%
    21:00 +13°C° 0 mm 3 m/S 771 mmHg 65%
    22:00 +13°C° 0 mm 3 m/S 771 mmHg 63%
    23:00 +13°C° 0 mm 3 m/S 771 mmHg 62%

    Morgen, 21 August, Mittwoch

    Zeit Temperatur Niederschläge Wind Luftdruck Luftfeuchtigkeit
    00:00 +12°C° 0 mm 3 m/S 770 mmHg 60%
    01:00 +12°C° 0 mm 4 m/S 770 mmHg 58%
    02:00 +12°C° 0 mm 4 m/S 769 mmHg 57%
    03:00 +12°C° 0 mm 4 m/S 769 mmHg 55%
    04:00 +11°C° 0 mm 4 m/S 769 mmHg 54%
    05:00 +11°C° 0 mm 4 m/S 769 mmHg 53%
    06:00 +11°C° 0 mm 4 m/S 769 mmHg 52%
    07:00 +12°C° 0 mm 4 m/S 769 mmHg 52%
    08:00 +12°C° 0 mm 4 m/S 769 mmHg 52%
    09:00 +14°C° 0 mm 5 m/S 769 mmHg 49%
    10:00 +16°C° 0 mm 5 m/S 769 mmHg 47%
    11:00 +19°C° 0 mm 5 m/S 769 mmHg 45%
    12:00 +20°C° 0 mm 5 m/S 768 mmHg 45%
    13:00 +21°C° 0 mm 5 m/S 767 mmHg 45%
    14:00 +22°C° 0 mm 4 m/S 766 mmHg 45%
    15:00 +21°C° 0 mm 4 m/S 766 mmHg 48%
    16:00 +21°C° 0 mm 3 m/S 765 mmHg 52%
    17:00 +20°C° 0 mm 3 m/S 765 mmHg 55%
    18:00 +19°C° 0 mm 3 m/S 765 mmHg 57%
    19:00 +17°C° 0 mm 3 m/S 765 mmHg 59%
    20:00 +16°C° 0 mm 3 m/S 765 mmHg 62%
    21:00 +16°C° 0 mm 3 m/S 765 mmHg 61%
    22:00 +14°C° 0 mm 3 m/S 765 mmHg 60%
    23:00 +14°C° 0 mm 3 m/S 764 mmHg 59%

    übermorgen, 22 August, Donnerstag

    Zeit Temperatur Niederschläge Wind Luftdruck Luftfeuchtigkeit
    00:00 +13°C° 0 mm 3 m/S 764 mmHg 55%
    01:00 +13°C° 0 mm 4 m/S 763 mmHg 50%
    02:00 +13°C° 0 mm 4 m/S 763 mmHg 45%
    03:00 +13°C° 0 mm 4 m/S 763 mmHg 43%
    04:00 +13°C° 0 mm 4 m/S 762 mmHg 41%
    05:00 +13°C° 0 mm 4 m/S 762 mmHg 39%
    06:00 +13°C° 0 mm 4 m/S 762 mmHg 41%
    07:00 +13°C° 0 mm 4 m/S 762 mmHg 42%
    08:00 +13°C° 0 mm 4 m/S 762 mmHg 44%
    09:00 +15°C° 0 mm 4 m/S 762 mmHg 43%
    10:00 +17°C° 0 mm 5 m/S 761 mmHg 41%
    11:00 +20°C° 0 mm 5 m/S 761 mmHg 40%
    12:00 +21°C° 0 mm 6 m/S 761 mmHg 42%
    13:00 +21°C° 0 mm 6 m/S 760 mmHg 43%
    14:00 +22°C° 0 mm 7 m/S 759 mmHg 44%
    15:00 +21°C° 0.3 mm 7 m/S 759 mmHg 54%
    16:00 +20°C° 0.3 mm 7 m/S 759 mmHg 63%
    17:00 +18°C° 0.3 mm 7 m/S 759 mmHg 73%
    18:00 +17°C° 3.5 mm 7 m/S 760 mmHg 77%
    19:00 +16°C° 3.5 mm 6 m/S 760 mmHg 82%
    20:00 +15°C° 3.5 mm 6 m/S 761 mmHg 86%
    21:00 +15°C° 2 mm 6 m/S 761 mmHg 86%
    22:00 +14°C° 2 mm 6 m/S 761 mmHg 86%
    23:00 +14°C° 2 mm 6 m/S 762 mmHg 86%

    23 August, Freitag

    Zeit Temperatur Niederschläge Wind Luftdruck Luftfeuchtigkeit
    00:00 +14°C° 0.1 mm 6 m/S 762 mmHg 83%
    01:00 +13°C° 0.1 mm 5 m/S 762 mmHg 81%
    02:00 +13°C° 0.1 mm 5 m/S 763 mmHg 78%
    03:00 +12°C° 0 mm 5 m/S 763 mmHg 76%
    04:00 +11°C° 0 mm 4 m/S 764 mmHg 73%
    05:00 +10°C° 0 mm 3 m/S 764 mmHg 71%
    06:00 +10°C° 0 mm 3 m/S 765 mmHg 73%
    07:00 +10°C° 0 mm 4 m/S 765 mmHg 74%
    08:00 +10°C° 0 mm 4 m/S 766 mmHg 76%
    09:00 +11°C° 0 mm 4 m/S 766 mmHg 69%
    10:00 +12°C° 0 mm 4 m/S 767 mmHg 62%
    11:00 +13°C° 0 mm 4 m/S 767 mmHg 55%
    12:00 +14°C° 0 mm 4 m/S 767 mmHg 52%
    13:00 +14°C° 0 mm 3 m/S 767 mmHg 49%
    14:00 +14°C° 0 mm 3 m/S 766 mmHg 47%
    15:00 +14°C° 0 mm 3 m/S 767 mmHg 50%
    16:00 +14°C° 0 mm 3 m/S 767 mmHg 53%
    17:00 +13°C° 0 mm 3 m/S 768 mmHg 56%
    18:00 +12°C° 0 mm 3 m/S 768 mmHg 57%
    19:00 +11°C° 0 mm 4 m/S 769 mmHg 57%
    20:00 +10°C° 0 mm 4 m/S 769 mmHg 58%
    21:00 +10°C° 0 mm 4 m/S 769 mmHg 59%
    22:00 +8°C° 0 mm 4 m/S 769 mmHg 59%
    23:00 +9°C° 0 mm 3 m/S 769 mmHg 60%

    24 August, Samstag

    Zeit Temperatur Niederschläge Wind Luftdruck Luftfeuchtigkeit
    00:00 +8°C° 0 mm 3 m/S 769 mmHg 60%
    01:00 +8°C° 0 mm 3 m/S 769 mmHg 61%
    02:00 +8°C° 0 mm 3 m/S 769 mmHg 62%
    03:00 +7°C° 0 mm 3 m/S 769 mmHg 65%
    04:00 +6°C° 0 mm 4 m/S 769 mmHg 67%
    05:00 +6°C° 0 mm 4 m/S 769 mmHg 70%
    06:00 +6°C° 0 mm 4 m/S 770 mmHg 68%
    07:00 +6°C° 0 mm 4 m/S 770 mmHg 66%
    08:00 +7°C° 0 mm 5 m/S 770 mmHg 64%
    09:00 +8°C° 0 mm 4 m/S 770 mmHg 59%
    10:00 +11°C° 0 mm 4 m/S 770 mmHg 54%
    11:00 +13°C° 0 mm 4 m/S 770 mmHg 49%
    12:00 +13°C° 0 mm 3 m/S 769 mmHg 48%
    13:00 +14°C° 0 mm 3 m/S 768 mmHg 46%
    14:00 +16°C° 0 mm 2 m/S 768 mmHg 45%
    15:00 +15°C° 0 mm 2 m/S 768 mmHg 48%
    16:00 +15°C° 0 mm 2 m/S 768 mmHg 51%
    17:00 +14°C° 0 mm 2 m/S 768 mmHg 54%
    18:00 +14°C° 0 mm 2 m/S 768 mmHg 54%
    19:00 +13°C° 0 mm 2 m/S 768 mmHg 54%
    20:00 +13°C° 0 mm 2 m/S 769 mmHg 54%
    21:00 +11°C° 0 mm 3 m/S 769 mmHg 56%
    22:00 +10°C° 0 mm 3 m/S 769 mmHg 58%
    23:00 +10°C° 0 mm 3 m/S 768 mmHg 61%

    25 August, Sonntag

    Zeit Temperatur Niederschläge Wind Luftdruck Luftfeuchtigkeit
    00:00 +9°C° 0 mm 3 m/S 768 mmHg 62%
    01:00 +9°C° 0 mm 3 m/S 768 mmHg 62%
    02:00 +8°C° 0 mm 3 m/S 767 mmHg 63%
    03:00 +8°C° 0 mm 3 m/S 767 mmHg 65%
    04:00 +8°C° 0 mm 3 m/S 768 mmHg 68%
    05:00 +7°C° 0 mm 3 m/S 768 mmHg 70%
    06:00 +8°C° 0 mm 2 m/S 768 mmHg 69%
    07:00 +8°C° 0 mm 2 m/S 768 mmHg 68%
    08:00 +8°C° 0 mm 2 m/S 768 mmHg 68%
    09:00 +10°C° 0 mm 2 m/S 768 mmHg 61%
    10:00 +14°C° 0 mm 2 m/S 768 mmHg 54%
    11:00 +16°C° 0 mm 2 m/S 768 mmHg 48%
    12:00 +16°C° 0 mm 2 m/S 767 mmHg 47%
    13:00 +17°C° 0 mm 2 m/S 767 mmHg 46%
    14:00 +18°C° 0 mm 2 m/S 766 mmHg 45%
    15:00 +17°C° 0 mm 2 m/S 766 mmHg 50%
    16:00 +17°C° 0 mm 3 m/S 766 mmHg 54%
    17:00 +16°C° 0 mm 3 m/S 766 mmHg 58%
    18:00 +14°C° 0 mm 3 m/S 767 mmHg 61%
    19:00 +13°C° 0 mm 3 m/S 767 mmHg 64%
    20:00 +12°C° 0 mm 3 m/S 768 mmHg 67%
    21:00 +11°C° 0 mm 3 m/S 768 mmHg 67%
    22:00 +11°C° 0 mm 3 m/S 768 mmHg 67%
    23:00 +11°C° 0 mm 3 m/S 768 mmHg 68%
    Mehr zeigen